Tracking 25648 objects as of 16-May-2022
HD Live streaming from Space Station
objects crossing your sky now

COSMOS 2251 DEB

Track COSMOS 2251 DEB now!
10-day predictions


NORAD ID: 37305
Int'l Code: 1993-036BJV
Perigee: 763.8 km
Apogee: 839.4 km
Inclination: 73.9 °
Period: 100.8 minutes
Semi major axis: 7172 km
RCS: 0.0061 m2 (small)
Launch date: June 16, 1993
Source: Commonwealth of Independent States (former USSR) (CIS)
Launch site: PLESETSK MISSILE AND SPACE COMPLEX (PKMTR)

Note: This is SATELLITE DEBRIS
aabbcc
Your satellite tracking list
Your tracking list is empty




NASA's NSSDC Master Catalog

Two Line Element Set (TLE):
1 37305U 93036BJV 22133.81007040  .00000910  00000-0  36336-3 0  9994
2 37305  73.8708 182.7323 0052720  40.7764 319.7311 14.29193540662358
Source of the keplerian elements: AFSPC